Location: Vancouver
(49.2500°N, 123.1330°W)
Time: 22:19:24
(UTC-07:00)

Oscar 11 - Visible Passes

Search period start: 18 August 2017 00:00
Search period end: 28 August 2017 00:00
Orbit: 614 x 626 km, 97.7° (Epoch: 18 August)

Date Brightness Start Highest point End Pass type
(mag) Time Alt. Az. Time Alt. Az. Time Alt. Az.
18 Aug 8.7 21:43:34 10° SSW 21:47:29 34° W 21:51:27 10° NNW visible
19 Aug 9.3 22:01:27 10° SSW 22:04:55 23° W 22:08:25 10° NW visible
20 Aug 9.7 22:19:40 10° SW 22:22:22 16° W 22:25:07 10° NW visible
21 Aug 7.1 20:58:48 10° SSE 21:03:07 89° ENE 21:07:28 10° NNW visible
21 Aug 10.0 22:38:43 10° WSW 22:39:54 11° W 22:41:05 10° WNW visible
22 Aug 7.6 21:16:09 10° S 21:20:25 62° W 21:24:44 10° NNW visible
23 Aug 8.3 21:33:42 10° S 21:37:46 41° W 21:41:54 10° NNW visible
24 Aug 9.0 21:51:26 10° SSW 21:55:10 28° W 21:58:57 10° NW visible
25 Aug 9.5 22:09:27 10° SW 22:12:37 20° W 22:15:49 10° NW visible
26 Aug 7.1 20:49:09 10° SSE 20:53:27 73° ENE 20:57:47 10° N visible
26 Aug 9.8 22:27:55 10° WSW 22:30:06 14° W 22:32:18 10° WNW visible
27 Aug 7.2 21:06:25 10° S 21:10:44 77° WSW 21:15:05 10° NNW visible
